User: anonymous   Login
Location: Ab? ar R?sh Ba?r?
(24.1861°N, 32.8847°E)
Time: 05:37:43
(UTC+00:00)
Language:

DMSP B5D2-2 - Orbit

View from above orbital plane
View from above orbital plane
View from above satellite
View from above satellite

Ground track
Ground track

The orbit data is extracted from the following two-line orbital elements,

1 14506U 83113A   22021.56463751  .00000084  00000-0  50002-4 0  9999
2 14506  98.2860 216.7326 0010288 304.6271 120.1911 14.28198549985907
Epoch (UTC): 21 January 2022 13:33:04
Eccentricity: 0.0010288
inclination: 98.2860°
perigee height: 790 km
apogee height: 805 km
right ascension of ascending node: 216.7326°
argument of perigee: 304.6271°
revolutions per day: 14.28198549
mean anomaly at epoch: 120.1911°
orbit number at epoch: 98590

The dashed part of the orbit path shows where the satellite is in the earth's shadow,  

DLR